Volver al catálogo

USA 550

ActivoMilitarSSO
NORAD 65076·PAYLOAD·🇺🇸 United States

Lanzado Jul 31, 2025 desde Vandenberg Space Force Base

Loading…

Próximos Pases (próximas 24 horas)

TLE

ObsoletoSource: Mike McCants

Época: Aug 15, 2026, 22:53 UTC

1 65076U 25165W   26227.95376237 0.00000000  00000-0  00000-0 0    07
2 65076  97.6043 320.9674 0000604 287.5402  72.4596 15.40353194    02

Sigue USA 550 en tiempo real con AllMySat

Download on the App Store